McCook, NE

11:52 PM CST on December 10, 2019 (GMT -0600)
McCook Municipal

Weather History for KMCK - September, 2019

Change the Weather History Date:

Sunday, September 29, 2019

  Actual Average Record
Temperature  
Mean Temperature 74 °F 58 °F  
Max Temperature 93 °F 73 °F 95 °F (1931)
Min Temperature 55 °F 43 °F 27 °F (1945)
Cooling Degree Days 10    
Growing Degree Days 24 (Base 50)    
Moisture  
Dew Point 61 °F    
Average Humidity 74    
Maximum Humidity 100    
Minimum Humidity 29    
Precipitation  
Precipitation 0.00 in 0.05 in 0.95 in (1965)
Month to date precipitation 0.64 1.40  
Year to date precipitation 17.97 19.11  
Sea Level Pressure  
Sea Level Pressure 29.72 in    
Wind  
Wind Speed 13 mph ()    
Max Wind Speed 31 mph    
Max Gust Speed 47 mph    
Visibility 6.1 miles    
Events Fog    
T = Trace of Precipitation, MM = Missing Value Source: Averaged Metar Reports

Daily Weather History Graph

Daily Weather History Graph

Search for Another Location

Airport or City:

Astronomy

Sep. 29, 2019 Rise Set
Actual Time 7:36 AM CDT 7:28 PM CDT
Civil Twilight 7:09 AM CDT 7:55 PM CDT
Nautical Twilight 6:37 AM CDT 8:26 PM CDT
Astronomical Twilight 6:06 AM CDT 8:58 PM CDT
Moon 8:29 AM CDT (9/29) 8:29 PM CDT (9/29)
Length of Visible Light 12h 45m
Length of Day
11h 51m
New Moon, 1% of the Moon is Illuminated
Sep 29
New Moon
Oct 5
First Quarter
Oct 13
Full
Oct 21
Last Quarter
Oct 27
New

Hourly Weather History & Observations

Time (CDT) Temp. Heat Index Dew Point Humidity Pressure Visibility Wind Dir Wind Speed Gust Speed Precip Events Conditions
12:13 AM 55.0 °F - 54.0 °F 96% 29.90 in 1.5 mi ESE 11.5 mph - N/A   Overcast
12:53 AM 55.0 °F - 55.0 °F 100% 29.87 in 1.5 mi ESE 10.4 mph - N/A   Overcast
1:53 AM 55.9 °F - 55.0 °F 97% 29.85 in 1.2 mi ESE 9.2 mph - N/A   Overcast
2:53 AM 57.0 °F - 55.9 °F 96% 29.83 in 1.0 mi ESE 9.2 mph - N/A   Mist
3:14 AM 57.0 °F - 55.9 °F 96% 29.86 in 0.8 mi ESE 10.4 mph - N/A   Mist
3:26 AM 57.0 °F - 57.0 °F 100% 29.85 in 1.0 mi ESE 11.5 mph 19.6 mph N/A   Mist
3:53 AM 57.9 °F - 57.0 °F 97% 29.81 in 1.0 mi ESE 11.5 mph - N/A   Overcast
4:53 AM 59.0 °F - 57.9 °F 96% 29.79 in 1.2 mi SE 11.5 mph - N/A   Overcast
5:33 AM 59.0 °F - 59.0 °F 100% 29.81 in 0.8 mi ESE 9.2 mph - N/A   Mist
5:53 AM 60.1 °F - 59.0 °F 96% 29.78 in 0.5 mi SE 10.4 mph - N/A Fog Fog
6:32 AM 62.1 °F - 61.0 °F 96% 29.80 in 1.5 mi SE 6.9 mph - N/A   Overcast
6:39 AM 62.1 °F - 62.1 °F 100% 29.80 in 3.0 mi SSE 10.4 mph - N/A   Overcast
6:53 AM 63.0 °F - 62.1 °F 97% 29.77 in 4.0 mi Variable 5.8 mph - N/A   Overcast
7:53 AM 66.0 °F - 64.0 °F 93% 29.76 in 6.0 mi South 6.9 mph - N/A   Overcast
8:01 AM 66.0 °F - 64.0 °F 93% 29.79 in 5.0 mi SSE 10.4 mph 18.4 mph N/A   Overcast
8:19 AM 66.0 °F - 64.0 °F 93% 29.79 in 7.0 mi SSE 10.4 mph 18.4 mph N/A   Scattered Clouds
8:53 AM 68.0 °F - 64.9 °F 90% 29.74 in 8.0 mi SSE 9.2 mph 19.6 mph N/A   Clear
9:53 AM 72.0 °F - 66.0 °F 81% 29.73 in 10.0 mi South 19.6 mph 34.5 mph N/A   Clear
10:53 AM 80.1 °F 82.3 °F 66.9 °F 64% 29.69 in 10.0 mi South 24.2 mph 36.8 mph N/A   Clear
11:53 AM 84.0 °F 85.8 °F 64.9 °F 53% 29.67 in 10.0 mi South 27.6 mph 41.4 mph N/A   Clear
12:53 PM 87.1 °F 88.9 °F 64.9 °F 48% 29.65 in 10.0 mi SSW 27.6 mph 40.3 mph N/A   Partly Cloudy
1:53 PM 91.0 °F 90.2 °F 59.0 °F 34% 29.61 in 10.0 mi SSW 31.1 mph 43.7 mph N/A   Clear
2:53 PM 93.9 °F 92.6 °F 57.0 °F 29% 29.57 in 10.0 mi South 31.1 mph 47.2 mph N/A   Clear
3:53 PM 93.0 °F 92.3 °F 59.0 °F 32% 29.56 in 10.0 mi South 29.9 mph 43.7 mph N/A   Clear
4:53 PM 93.0 °F 92.3 °F 59.0 °F 32% 29.55 in 10.0 mi South 25.3 mph 46.0 mph N/A   Clear
5:53 PM 91.0 °F 90.5 °F 60.1 °F 35% 29.56 in 10.0 mi South 27.6 mph 41.4 mph N/A   Clear
6:53 PM 88.0 °F 88.4 °F 62.1 °F 42% 29.56 in 10.0 mi South 24.2 mph 35.7 mph N/A   Clear
7:53 PM 84.9 °F 85.9 °F 63.0 °F 48% 29.57 in 10.0 mi South 24.2 mph 38.0 mph N/A   Clear
8:53 PM 82.9 °F 84.6 °F 64.9 °F 54% 29.59 in 10.0 mi South 21.9 mph 40.3 mph N/A   Clear
9:53 PM 82.0 °F 84.1 °F 66.0 °F 58% 29.61 in 10.0 mi South 24.2 mph 41.4 mph N/A   Clear
10:53 PM 80.1 °F 82.1 °F 66.0 °F 62% 29.61 in 10.0 mi South 26.5 mph 39.1 mph N/A   Clear
11:53 PM 79.0 °F - 66.0 °F 64% 29.62 in 10.0 mi South 27.6 mph 42.6 mph N/A   Clear